Location: Newark
(7.0858°N, 171.3717°E)
Time: 02:52:43
(UTC+00:00)

KAITUO 1B - Visible Passes

Search period start: 13 November 2019 00:00
Search period end: 23 November 2019 00:00
Orbit: 495 x 517 km, 97.5° (Epoch: 12 November)

Date Brightness Start Highest point End Pass type
(mag) Time Alt. Az. Time Alt. Az. Time Alt. Az.
13 Nov ? 07:26:03 10° WSW 07:27:13 11° W 07:28:23 10° W visible
14 Nov ? 07:06:41 10° SSW 07:09:30 21° W 07:12:20 10° NW visible
15 Nov ? 06:48:20 10° S 06:51:48 41° W 06:55:14 10° NNW visible
17 Nov ? 18:00:55 10° NE 18:03:50 22° E 18:06:46 10° SSE visible
18 Nov ? 17:44:48 10° E 17:46:07 12° E 17:47:26 10° ESE visible
19 Nov ? 07:12:06 10° SW 07:14:37 18° W 07:17:08 10° NW visible
20 Nov ? 06:53:34 10° SSW 06:56:53 34° W 07:00:13 10° NW visible
21 Nov ? 06:35:33 10° S 06:39:10 71° WSW 06:42:47 10° NNW visible
22 Nov ? 18:05:47 10° NE 18:08:57 26° E 18:12:06 10° SSE visible
